Santuari del Coll - Susqueda





Hora UTC 12:25
Temperatura 9.3 ºC
Humitat 60.0 %
Pressió 1021.0 hPa
Pluja 0.0 mm
Velocitat vent 4.8 km/h
Direcció vent W

Dades diàries 2021-01-17



Hora UTC (hivern +1h; estiu +2h)
Temperatura (ºC) Humitat (%) Pressió (hPa) Velocitat vent (km/h) Precipitació (mm)
Hora UTC Aire Humitat Pressió Vel. Dir. Vel. Max Dir. Intent. màx 5 min.
00:05 3.4 70.0 1023.2 4.8 SE 4.8 0.0
00:10 3.6 69.0 1023.0 11.3 WSW 24.1 0.0
00:15 3.8 68.0 1023.0 16.1 W 24.1 0.0
00:20 4.1 68.0 1022.9 11.3 WSW 24.1 0.0
00:25 4.2 67.0 1022.8 17.7 SSW 27.4 0.0
00:30 4.2 67.0 1023.1 20.9 W 37.0 0.0
00:35 4.1 68.0 1022.9 17.7 WSW 37.0 0.0
00:40 4.1 68.0 1022.9 6.4 E 25.7 0.0
00:45 4.1 67.0 1022.8 3.2 SW 25.7 0.0
00:50 4.1 68.0 1022.8 4.8 W 25.7 0.0
00:55 4.1 68.0 1022.7 22.5 WNW 22.5 0.0
01:00 4.1 68.0 1022.4 19.3 W 24.1 0.0
01:05 3.9 69.0 1022.4 12.9 W 37.0 0.0
01:10 3.8 70.0 1022.4 20.9 SW 37.0 0.0
01:15 3.6 71.0 1022.4 11.3 WSW 30.6 0.0
01:20 3.3 73.0 1022.4 11.3 WSW 30.6 0.0
01:25 3.1 74.0 1022.4 6.4 W 29.0 0.0
01:30 3.0 74.0 1022.2 9.7 WSW 30.6 0.0
01:35 2.8 75.0 1022.2 14.5 W 30.6 0.0
01:40 2.7 75.0 1022.1 19.3 WSW 25.7 0.0
01:45 2.7 76.0 1022.2 19.3 SW 32.2 0.0
01:50 2.7 76.0 1022.2 9.7 W 32.2 0.0
01:55 2.6 76.0 1022.0 19.3 W 33.8 0.0
01:55 2.7 75.0 1022.1 11.3 W 33.8 0.0
02:05 2.6 75.0 1021.9 11.3 WSW 27.4 0.0
02:10 2.6 75.0 1021.9 25.7 WSW 33.8 0.0
02:15 2.5 75.0 1022.0 9.7 W 40.2 0.0
02:20 2.4 76.0 1021.9 8.0 SW 40.2 0.0
02:25 2.3 76.0 1021.9 11.3 WNW 29.0 0.0
02:30 2.2 77.0 1022.0 16.1 SE 33.8 0.0
02:35 2.0 77.0 1021.6 12.9 WNW 33.8 0.0
02:40 1.9 78.0 1021.7 6.4 ESE 40.2 0.0
02:45 1.9 78.0 1021.9 14.5 WNW 33.8 0.0
02:50 1.8 78.0 1021.8 17.7 NNW 27.4 0.0
02:55 1.9 78.0 1021.8 8.0 WSW 27.4 0.0
03:00 2.1 77.0 1021.6 12.9 W 33.8 0.0
03:05 2.3 77.0 1021.7 12.9 NNE 33.8 0.0
03:10 2.3 76.0 1021.8 12.9 SW 37.0 0.0
03:15 2.4 76.0 1021.7 17.7 W 37.0 0.0
03:20 2.5 76.0 1021.8 9.7 NNW 27.4 0.0
03:25 2.4 76.0 1021.8 17.7 W 27.4 0.0
03:30 2.4 77.0 1021.5 12.9 SSE 30.6 0.0
03:35 2.4 76.0 1021.4 14.5 W 30.6 0.0
03:40 2.7 75.0 1021.4 9.7 W 30.6 0.0
03:45 2.8 75.0 1021.3 19.3 W 29.0 0.0
03:50 2.7 75.0 1021.4 9.7 S 29.0 0.0
03:55 2.6 75.0 1021.3 11.3 SW 29.0 0.0
04:00 2.9 73.0 1021.3 12.9 W 37.0 0.0
04:05 3.0 73.0 1021.5 12.9 S 37.0 0.0
04:10 3.1 73.0 1021.5 9.7 SW 33.8 0.0
04:15 3.2 72.0 1021.5 11.3 W 29.0 0.0
04:20 3.4 71.0 1021.4 17.7 SW 27.4 0.0
04:25 3.6 70.0 1021.5 17.7 W 29.0 0.0
04:30 3.7 69.0 1021.2 6.4 W 29.0 0.0
04:35 3.7 69.0 1021.1 11.3 WNW 27.4 0.0
04:40 3.7 69.0 1021.1 11.3 W 29.0 0.0
04:45 3.8 69.0 1020.8 11.3 W 29.0 0.0
04:50 3.8 70.0 1021.1 9.7 W 32.2 0.0
04:55 3.7 70.0 1020.9 8.0 SW 32.2 0.0
05:00 3.7 70.0 1021.0 16.1 W 35.4 0.0
05:05 3.8 70.0 1020.9 6.4 W 27.4 0.0
05:10 3.8 70.0 1020.8 12.9 W 27.4 0.0
05:15 3.8 70.0 1020.9 11.3 W 27.4 0.0
05:20 4.1 71.0 1020.9 11.3 ESE 24.1 0.0
05:25 4.3 70.0 1020.9 16.1 W 25.7 0.0
05:30 4.3 69.0 1021.1 6.4 SSW 25.7 0.0
05:35 4.3 69.0 1020.9 11.3 SW 29.0 0.0
05:40 4.4 69.0 1020.9 6.4 S 29.0 0.0
05:45 4.4 69.0 1020.9 9.7 W 27.4 0.0
05:50 4.4 69.0 1021.1 11.3 WNW 33.8 0.0
05:55 4.3 69.0 1021.1 8.0 WNW 33.8 0.0
06:00 4.3 68.0 1021.1 4.8 SW 25.7 0.0
06:05 4.2 69.0 1021.0 14.5 SW 24.1 0.0
06:10 4.2 69.0 1021.3 12.9 W 27.4 0.0
06:15 4.1 69.0 1021.3 4.8 SSW 27.4 0.0
06:20 4.1 69.0 1021.2 3.2 SW 25.7 0.0
06:25 3.9 69.0 1021.2 16.1 WNW 25.7 0.0
06:30 3.7 70.0 1021.4 9.7 SSW 27.4 0.0
06:35 3.5 71.0 1021.3 6.4 SSW 27.4 0.0
06:40 3.4 72.0 1021.4 3.2 WNW 20.9 0.0
06:45 3.3 72.0 1021.4 9.7 W 25.7 0.0
06:50 3.3 72.0 1021.4 14.5 W 19.3 0.0
06:55 3.4 73.0 1021.4 6.4 WSW 30.6 0.0
07:00 3.7 72.0 1021.4 4.8 W 19.3 0.0
07:05 3.8 71.0 1021.5 6.4 W 19.3 0.0
07:10 4.0 71.0 1021.5 6.4 WSW 19.3 0.0
07:15 4.1 71.0 1021.5 8.0 WSW 29.0 0.0
07:20 4.2 70.0 1021.7 4.8 WSW 29.0 0.0
07:25 4.2 70.0 1021.5 8.0 SW 20.9 0.0
07:30 4.4 69.0 1021.5 11.3 W 22.5 0.0
07:35 4.6 69.0 1021.4 9.7 W 22.5 0.0
07:40 4.9 69.0 1021.4 6.4 WSW 16.1 0.0
07:45 5.0 68.0 1021.4 3.2 W 20.9 0.0
07:50 5.1 68.0 1021.5 14.5 W 20.9 0.0
07:55 5.2 67.0 1021.7 6.4 W 24.1 0.0
08:00 5.1 67.0 1021.8 4.8 WNW 22.5 0.0
08:05 5.1 68.0 1021.8 3.2 W 17.7 0.0
08:10 5.1 68.0 1021.8 6.4 W 12.9 0.0
08:15 5.2 69.0 1021.7 3.2 NW 12.9 0.0
08:20 5.4 69.0 1021.8 1.6 WNW 9.7 0.0
08:25 5.5 68.0 1021.8 4.8 WNW 8.0 0.0
08:30 5.8 68.0 1021.8 1.6 WNW 19.3 0.0
08:35 6.1 67.0 1021.9 0.0 S 19.3 0.0
08:40 6.6 65.0 1021.9 3.2 NW 6.4 0.0
08:45 6.9 65.0 1022.0 1.6 WNW 6.4 0.0
08:50 7.2 64.0 1022.1 0.0 WNW 8.0 0.0
08:55 7.3 64.0 1022.1 4.8 NW 14.5 0.0
09:00 7.3 63.0 1022.4 6.4 W 14.5 0.0
09:05 7.5 62.0 1022.3 6.4 WNW 14.5 0.0
09:10 7.6 64.0 1022.3 1.6 NW 14.5 0.0
09:15 7.7 64.0 1022.3 1.6 NW 9.7 0.0
09:20 8.0 63.0 1022.4 0.0 NW 3.2 0.0
09:25 8.3 63.0 1022.4 0.0 NW 3.2 0.0
09:30 8.8 59.0 1022.4 1.6 WNW 6.4 0.0
09:35 9.2 58.0 1022.5 3.2 SW 6.4 0.0
09:40 9.7 56.0 1022.5 3.2 SSE 6.4 0.0
09:45 9.9 55.0 1022.6 1.6 SSW 9.7 0.0
09:50 10.1 55.0 1022.5 3.2 WNW 9.7 0.0
09:55 10.3 55.0 1022.5 3.2 W 8.0 0.0
10:00 10.3 54.0 1022.5 3.2 WSW 8.0 0.0
10:05 10.3 54.0 1022.5 3.2 W 11.3 0.0
10:10 10.4 55.0 1022.4 1.6 WSW 11.3 0.0
10:15 10.8 55.0 1022.5 3.2 NW 4.8 0.0
10:20 11.2 52.0 1022.4 8.0 WSW 11.3 0.0
10:25 11.0 52.0 1022.3 3.2 WNW 16.1 0.0
10:30 10.9 53.0 1022.3 6.4 WSW 17.7 0.0
10:35 10.7 53.0 1022.2 6.4 WSW 17.7 0.0
10:40 10.7 54.0 1022.2 1.6 ENE 14.5 0.0
10:45 10.4 54.0 1022.2 3.2 SW 14.5 0.0
10:50 10.3 54.0 1022.2 9.7 W 20.9 0.0
10:55 10.3 55.0 1022.0 4.8 WSW 20.9 0.0
11:00 10.2 55.0 1022.0 9.7 SW 16.1 0.0
11:05 10.1 56.0 1021.9 1.6 NW 16.1 0.0
11:10 10.2 55.0 1021.9 4.8 WSW 19.3 0.0
11:15 10.3 55.0 1021.9 11.3 WSW 19.3 0.0
11:20 10.2 55.0 1021.8 3.2 WSW 14.5 0.0
11:25 9.8 57.0 1021.8 4.8 WSW 20.9 0.0
11:30 9.3 59.0 1021.7 3.2 SSW 20.9 0.0
11:35 9.3 59.0 1021.7 3.2 W 17.7 0.0
11:40 9.3 59.0 1021.6 3.2 SW 14.5 0.0
11:45 9.3 59.0 1021.5 1.6 WSW 16.1 0.0
11:50 9.4 59.0 1021.5 3.2 WSW 16.1 0.0
11:55 9.6 59.0 1021.4 1.6 S 12.9 0.0
12:00 9.8 58.0 1021.4 1.6 W 12.9 0.0
12:05 9.8 59.0 1021.4 1.6 NE 12.9 0.0
12:10 9.7 59.0 1021.2 1.6 SSW 12.9 0.0
12:15 9.6 59.0 1021.2 6.4 WSW 12.9 0.0
12:20 9.4 59.0 1021.0 9.7 WNW 12.9 0.0
12:25 9.3 60.0 1021.0 4.8 W 12.9 0.0
Màxima 11.2 78.0 1023.2 25.7 WSW 40.2 0.0
Mínima 1.8 52.0 1020.8
Total 0.0